Hillsboro, TX

3:48 AM CDT on October 17, 2017 (GMT -0500)
Hillsboro

Weather History for KINJ - September, 2013

Change the Weather History Date:

Friday, September 27, 2013

  Actual Average (KACT) Record (KACT)
Temperature  
Mean Temperature 80 °F -  
Max Temperature 89 °F 85 °F 106 °F (1977)
Min Temperature 72 °F 60 °F 39 °F (1942)
Cooling Degree Days 15    
Growing Degree Days 30 (Base 50)    
Moisture  
Dew Point 67 °F    
Average Humidity 64    
Maximum Humidity 79    
Minimum Humidity 51    
Precipitation  
Precipitation 0.00 in - - ()
Sea Level Pressure  
Sea Level Pressure 29.90 in    
Wind  
Wind Speed 12 mph (SE)    
Max Wind Speed 20 mph    
Max Gust Speed 24 mph    
Visibility 10 miles    
Events      
Averages and records for this station are not official NWS values.
T = Trace of Precipitation, MM = Missing Value Source: NWS Daily Summary

Daily Weather History Graph

Daily Weather History Graph

Search for Another Location

Airport or City:

Trip Planner

Search our weather history database for the weather conditions in past years. The results will help you decide how hot, cold, wet, or windy it might be!

Date:

Astronomy

Sep. 27, 2013 Rise Set
Actual Time 7:19 AM CDT 7:18 PM CDT
Civil Twilight 6:55 AM CDT 7:42 PM CDT
Nautical Twilight 6:27 AM CDT 8:10 PM CDT
Astronomical Twilight 5:58 AM CDT 8:39 PM CDT
Moon 12:35 AM CDT (9/27) 2:39 PM CDT (9/27)
Length of Visible Light 12h 46m
Length of Day
11h 58m
Last Quarter, 45% of the Moon is Illuminated
Sep 27
Last Quarter
Oct 4
New
Oct 11
First Quarter
Oct 18
Full
Oct 26
Last Quarter

Hourly Weather History & Observations

Time (CDT) Temp. Heat Index Dew Point Humidity Pressure Visibility Wind Dir Wind Speed Gust Speed Precip Events Conditions
12:35 AM 76.6 °F - 58.1 °F 53% 29.90 in 10.0 mi SE 13.8 mph 18.4 mph N/A   Clear
12:55 AM 76.6 °F - 58.1 °F 53% 29.90 in 10.0 mi SSE 12.7 mph - N/A   Clear
1:15 AM 76.3 °F - 58.1 °F 53% 29.90 in 10.0 mi SSE 11.5 mph - N/A   Scattered Clouds
1:35 AM 76.3 °F - 58.5 °F 54% 29.90 in 10.0 mi SSE 10.4 mph - N/A   Mostly Cloudy
1:55 AM 76.1 °F - 58.8 °F 55% 29.90 in 10.0 mi SSE 9.2 mph - N/A   Mostly Cloudy
2:15 AM 75.4 °F - 59.0 °F 57% 29.90 in 10.0 mi SSE 10.4 mph - N/A   Scattered Clouds
2:35 AM 75.2 °F - 59.0 °F 57% 29.91 in 10.0 mi SSE 8.1 mph - N/A   Scattered Clouds
2:55 AM 74.3 °F - 59.2 °F 59% 29.91 in 10.0 mi SSE 9.2 mph - N/A   Clear
3:15 AM 73.8 °F - 59.9 °F 62% 29.90 in 10.0 mi SE 8.1 mph - N/A   Clear
3:35 AM 73.4 °F - 60.3 °F 63% 29.90 in 10.0 mi SSE 9.2 mph - N/A   Clear
3:55 AM 73.4 °F - 61.2 °F 65% 29.90 in 10.0 mi SSE 8.1 mph - N/A   Scattered Clouds
4:15 AM 73.8 °F - 61.9 °F 66% 29.90 in 10.0 mi SSE 6.9 mph - N/A   Mostly Cloudy
4:35 AM 74.3 °F - 62.6 °F 67% 29.90 in 10.0 mi SSE 6.9 mph - N/A   Overcast
4:55 AM 74.3 °F - 63.0 °F 68% 29.90 in 10.0 mi SSE 6.9 mph - N/A   Overcast
5:15 AM 73.9 °F - 63.3 °F 69% 29.90 in 10.0 mi SSE 8.1 mph - N/A   Mostly Cloudy
5:35 AM 73.8 °F - 63.7 °F 71% 29.90 in 10.0 mi SSE 6.9 mph - N/A   Scattered Clouds
5:55 AM 73.4 °F - 64.4 °F 73% 29.91 in 10.0 mi SSE 6.9 mph - N/A   Scattered Clouds
6:15 AM 73.6 °F - 65.3 °F 75% 29.92 in 10.0 mi SSE 6.9 mph - N/A   Scattered Clouds
6:35 AM 73.2 °F - 65.5 °F 77% 29.92 in 10.0 mi SSE 6.9 mph - N/A   Clear
7:15 AM 72.3 °F - 64.8 °F 77% 29.92 in 10.0 mi SE 6.9 mph - N/A   Scattered Clouds
7:35 AM 72.1 °F - 65.5 °F 79% 29.93 in 10.0 mi ESE 6.9 mph - N/A   Clear
8:15 AM 73.4 °F - 66.2 °F 78% 29.93 in 10.0 mi ESE 10.4 mph - N/A   Clear
8:35 AM 74.3 °F - 66.9 °F 78% 29.94 in 10.0 mi ESE 11.5 mph - N/A   Clear
8:55 AM 75.2 °F - 67.3 °F 76% 29.95 in 10.0 mi SE 12.7 mph - N/A   Scattered Clouds
9:15 AM 76.3 °F - 68.4 °F 76% 29.95 in 7.0 mi SE 10.4 mph - N/A   Scattered Clouds
9:35 AM 77.0 °F - 69.6 °F 78% 29.95 in 7.0 mi SSE 12.7 mph - N/A   Mostly Cloudy
9:55 AM 78.8 °F - 70.3 °F 75% 29.95 in 5.0 mi SSE 12.7 mph - N/A   Haze
10:15 AM 80.6 °F 83.9 °F 69.8 °F 70% 29.95 in 7.0 mi SSE 12.7 mph 17.3 mph N/A   Scattered Clouds
10:35 AM 81.0 °F 84.4 °F 70.0 °F 69% 29.95 in 10.0 mi SSE 15.0 mph - N/A   Scattered Clouds
10:55 AM 80.8 °F 84.2 °F 70.0 °F 70% 29.95 in 10.0 mi SSE 16.1 mph - N/A   Mostly Cloudy
11:15 AM 82.4 °F 86.3 °F 70.2 °F 66% 29.95 in 10.0 mi SSE 13.8 mph - N/A   Mostly Cloudy
11:35 AM 83.1 °F 87.1 °F 70.0 °F 64% 29.94 in 10.0 mi SE 16.1 mph 20.7 mph N/A   Mostly Cloudy
11:55 AM 83.5 °F 87.7 °F 70.0 °F 64% 29.94 in 10.0 mi SSE 15.0 mph 23.0 mph N/A   Mostly Cloudy
12:15 PM 84.2 °F 88.4 °F 70.0 °F 62% 29.94 in 10.0 mi SSE 11.5 mph - N/A   Mostly Cloudy
12:55 PM 84.2 °F 87.9 °F 68.9 °F 60% 29.93 in 10.0 mi SSE 17.3 mph 23.0 mph N/A   Mostly Cloudy
1:15 PM 84.4 °F 88.2 °F 69.3 °F 60% 29.93 in 10.0 mi SSE 12.7 mph - N/A   Overcast
1:35 PM 85.1 °F 89.1 °F 69.1 °F 59% 29.93 in 10.0 mi South 15.0 mph - N/A   Mostly Cloudy
1:55 PM 85.1 °F 89.1 °F 69.4 °F 59% 29.92 in 10.0 mi SSE 13.8 mph - N/A   Mostly Cloudy
2:15 PM 86.0 °F 89.7 °F 68.9 °F 56% 29.91 in 10.0 mi SE 13.8 mph 18.4 mph N/A   Mostly Cloudy
2:35 PM 86.5 °F 90.3 °F 68.5 °F 55% 29.90 in 10.0 mi SSE 13.8 mph 20.7 mph N/A   Mostly Cloudy
2:55 PM 86.9 °F 90.6 °F 68.5 °F 54% 29.89 in 10.0 mi SSE 12.7 mph - N/A   Mostly Cloudy
3:15 PM 86.9 °F 90.6 °F 68.2 °F 54% 29.88 in 10.0 mi SSE 15.0 mph - N/A   Mostly Cloudy
3:35 PM 87.6 °F 91.5 °F 68.5 °F 53% 29.87 in 10.0 mi SE 15.0 mph - N/A   Overcast
3:55 PM 88.3 °F 92.0 °F 68.4 °F 51% 29.87 in 10.0 mi SSE 13.8 mph - N/A   Mostly Cloudy
4:35 PM 88.7 °F 92.6 °F 68.7 °F 51% 29.87 in 10.0 mi SE 13.8 mph - N/A   Mostly Cloudy
4:55 PM 88.2 °F 92.1 °F 68.5 °F 52% 29.86 in 10.0 mi SE 15.0 mph - N/A   Mostly Cloudy
5:35 PM 87.3 °F 92.0 °F 69.8 °F 56% 29.86 in 10.0 mi ESE 12.7 mph 17.3 mph N/A   Scattered Clouds
5:55 PM 86.4 °F 91.1 °F 70.0 °F 58% 29.86 in 10.0 mi SE 18.4 mph - N/A   Scattered Clouds
6:15 PM 86.2 °F 90.7 °F 70.0 °F 58% 29.86 in 10.0 mi SE 15.0 mph - N/A   Scattered Clouds
6:35 PM 86.2 °F 90.7 °F 70.0 °F 58% 29.86 in 10.0 mi SE 15.0 mph - N/A   Clear
6:55 PM 85.1 °F 89.4 °F 69.6 °F 60% 29.86 in 10.0 mi SE 15.0 mph - N/A   Clear
7:15 PM 84.2 °F 88.4 °F 69.8 °F 62% 29.86 in 10.0 mi ESE 13.8 mph 19.6 mph N/A   Clear
7:35 PM 83.5 °F 87.4 °F 69.8 °F 63% 29.86 in 10.0 mi ESE 11.5 mph - N/A   Clear
7:55 PM 83.1 °F 87.1 °F 69.8 °F 64% 29.86 in 10.0 mi ESE 12.7 mph 17.3 mph N/A   Clear
8:15 PM 82.4 °F 86.3 °F 69.8 °F 66% 29.87 in 10.0 mi ESE 12.7 mph 17.3 mph N/A   Clear
8:35 PM 82.0 °F 85.7 °F 69.8 °F 66% 29.87 in 10.0 mi ESE 11.5 mph - N/A   Clear
8:55 PM 81.7 °F 85.2 °F 69.8 °F 67% 29.87 in 10.0 mi ESE 11.5 mph 17.3 mph N/A   Clear
9:15 PM 81.3 °F 84.6 °F 69.4 °F 67% 29.87 in 10.0 mi ESE 11.5 mph - N/A   Clear
9:35 PM 80.8 °F 83.9 °F 69.4 °F 68% 29.87 in 10.0 mi ESE 13.8 mph - N/A   Clear
10:15 PM 80.1 °F 83.0 °F 69.4 °F 70% 29.88 in 10.0 mi SE 11.5 mph 19.6 mph N/A   Clear
10:35 PM 79.9 °F - 69.3 °F 70% 29.88 in 10.0 mi SE 17.3 mph - N/A   Clear
10:55 PM 79.7 °F - 69.1 °F 70% 29.88 in 10.0 mi SE 19.6 mph 24.2 mph N/A   Clear
11:15 PM 79.3 °F - 69.3 °F 71% 29.89 in 10.0 mi SE 16.1 mph - N/A   Clear
11:35 PM 79.0 °F - 69.3 °F 72% 29.89 in 10.0 mi SE 15.0 mph - N/A   Clear
11:55 PM 78.8 °F - 69.8 °F 74% 29.90 in 10.0 mi SSE 16.1 mph 23.0 mph N/A   Clear